| time (UTC) | temp F | wind direction | speed knots | gust knots | rain 1hr in | rain 24hr in | rain mn in | humidity % | barometer mb |
| 20260510144449 | 79 | 190 | 0.0 | 0.9 | 0.00 | 0.00 | 0.00 | 53 | 975.3 |
| 20260510143509 | 78 | 190 | 0.0 | 0.0 | 0.00 | 0.00 | 0.00 | 50 | 975.2 |
| 20260510142507 | 77 | 190 | 0.0 | 0.0 | 0.00 | 0.00 | 0.00 | 45 | 975.1 |
| 20260510141527 | 77 | 190 | 0.0 | 0.0 | 0.00 | 0.00 | 0.00 | 30 | 975.0 |
| 20260510140543 | 77 | 190 | 0.0 | 0.0 | 0.00 | 0.00 | 0.00 | 8 | 975.0 |
| 20260510135606 | 76 | 190 | 0.0 | 0.0 | 0.00 | 0.00 | 0.00 | 1 | 974.8 |
| 20260510134605 | 75 | 190 | 0.0 | 0.0 | 0.00 | 0.00 | 0.00 | 1 | 974.7 |
| 20260510133617 | 74 | 190 | 0.0 | 0.0 | 0.00 | 0.00 | 0.00 | 1 | 974.5 |
| 20260510132640 | 73 | 190 | 0.0 | 0.0 | 0.00 | 0.00 | 0.00 | 1 | 974.3 |
| 20260510131609 | 72 | 190 | 0.0 | 0.0 | 0.00 | 0.00 | 0.00 | 1 | 974.2 |
| 20260510130549 | 71 | 190 | 0.0 | 0.0 | 0.00 | 0.00 | 0.00 | 1 | 974.1 |
| 20260510125559 | 70 | 190 | 0.0 | 0.0 | 0.00 | 0.00 | 0.00 | 1 | 973.8 |
| 20260510123446 | 69 | 190 | 0.0 | 0.0 | 0.00 | 0.00 | 0.00 | 1 | 973.6 |
| 20260510122504 | 69 | 190 | 0.0 | 0.0 | 0.00 | 0.00 | 0.00 | 1 | 973.3 |
| 20260510121528 | 69 | 190 | 0.0 | 0.0 | 0.00 | 0.00 | 0.00 | 1 | 973.1 |
| 20260510115405 | 69 | 190 | 0.0 | 0.0 | 0.00 | 0.00 | 0.00 | 1 | 973.0 |
| 20260510113240 | 70 | 190 | 0.0 | 0.0 | 0.00 | 0.00 | 0.00 | 1 | 972.8 |
| 20260510112244 | 70 | 190 | 0.0 | 0.0 | 0.00 | 0.00 | 0.00 | 1 | 972.7 |
| 20260510111301 | 70 | 190 | 0.0 | 0.0 | 0.00 | 0.00 | 0.00 | 1 | 972.8 |
| 20260510110302 | 71 | 190 | 0.0 | 0.0 | 0.00 | 0.00 | 0.00 | 1 | 972.8 |
| 20260510105318 | 71 | 190 | 0.0 | 0.0 | 0.00 | 0.00 | 0.00 | 1 | 972.7 |
| 20260510104255 | 71 | 190 | 0.0 | 0.0 | 0.00 | 0.00 | 0.00 | 1 | 972.6 |
| 20260510103316 | 71 | 190 | 0.0 | 1.7 | 0.00 | 0.00 | 0.00 | 1 | 972.4 |
| 20260510102257 | 71 | 186 | 0.0 | 0.0 | 0.00 | 0.00 | 0.00 | 1 | 972.4 |
| 20260510101247 | 71 | 186 | 0.0 | 0.0 | 0.00 | 0.00 | 0.00 | 1 | 972.2 |
| 20260510100226 | 71 | 186 | 0.0 | 0.0 | 0.00 | 0.00 | 0.00 | 1 | 972.0 |
| 20260510095250 | 71 | 186 | 0.0 | 0.0 | 0.00 | 0.00 | 0.00 | 1 | 972.1 |
| 20260510094225 | 71 | 186 | 0.0 | 0.0 | 0.00 | 0.00 | 0.00 | 1 | 972.2 |
| 20260510093158 | 71 | 186 | 0.0 | 0.0 | 0.00 | 0.00 | 0.00 | 1 | 972.0 |
| 20260510092155 | 71 | 186 | 0.0 | 0.0 | 0.00 | 0.00 | 0.00 | 1 | 972.1 |
| 20260510090004 | 71 | 183 | 0.0 | 0.0 | 0.00 | 0.00 | 0.00 | 1 | 971.9 |
| 20260510084935 | 71 | 183 | 0.0 | 0.0 | 0.00 | 0.00 | 0.00 | 1 | 971.9 |
| 20260510083908 | 71 | 183 | 0.0 | 0.0 | 0.00 | 0.00 | 0.00 | 1 | 972.2 |
| 20260510082854 | 71 | 183 | 0.0 | 0.0 | 0.00 | 0.00 | 0.00 | 1 | 972.2 |
| 20260510081828 | 71 | 183 | 0.0 | 0.0 | 0.00 | 0.00 | 0.00 | 1 | 972.1 |
| 20260510080815 | 71 | 183 | 0.0 | 0.0 | 0.00 | 0.00 | 0.00 | 1 | 972.3 |
| 20260510075742 | 71 | 183 | 0.0 | 0.0 | 0.00 | 0.00 | 0.00 | 1 | 972.4 |
| 20260510074709 | 71 | 183 | 0.0 | 0.0 | 0.00 | 0.00 | 0.00 | 1 | 972.5 |
| 20260510073712 | 71 | 183 | 0.0 | 0.0 | 0.00 | 0.00 | 0.00 | 1 | 972.6 |
| 20260510072654 | 71 | 183 | 0.0 | 0.0 | 0.00 | 0.00 | 0.00 | 1 | 972.5 |
| 20260510071702 | 71 | 183 | 0.0 | 0.0 | 0.00 | 0.00 | 0.00 | 1 | 972.4 |
| 20260510065544 | 71 | 182 | 0.0 | 0.0 | 0.00 | 0.00 | 0.00 | 7 | 972.3 |
| 20260510064522 | 71 | 181 | 0.0 | 0.0 | 0.00 | 0.00 | 0.00 | 9 | 972.4 |
| 20260510063532 | 71 | 182 | 0.0 | 0.0 | 0.00 | 0.00 | 0.00 | 14 | 972.4 |
| 20260510061429 | 72 | 182 | 0.0 | 0.0 | 0.00 | 0.00 | 0.00 | 29 | 972.4 |
| 20260510060445 | 72 | 182 | 0.0 | 0.0 | 0.00 | 0.00 | 0.00 | 32 | 972.3 |
| 20260510055434 | 72 | 180 | 0.0 | 0.0 | 0.00 | 0.00 | 0.00 | 30 | 972.1 |
| 20260510054406 | 72 | 180 | 0.0 | 0.0 | 0.00 | 0.00 | 0.00 | 29 | 972.2 |
| 20260510053421 | 73 | 180 | 0.0 | 0.0 | 0.00 | 0.00 | 0.00 | 18 | 972.2 |
| 20260510051309 | 73 | 180 | 0.0 | 0.0 | 0.00 | 0.00 | 0.00 | 1 | 972.3 |
| 20260510050326 | 73 | 180 | 0.0 | 0.0 | 0.00 | 0.00 | 0.00 | 1 | 972.2 |
| 20260510045348 | 73 | 180 | 0.0 | 0.0 | 0.00 | 0.00 | 0.00 | 1 | 972.2 |
| 20260510043210 | 74 | 180 | 0.0 | 0.0 | 0.00 | 0.00 | 0.00 | 1 | 972.1 |
| 20260510042219 | 74 | 180 | 0.0 | 0.0 | 0.00 | 0.00 | 0.00 | 1 | 972.2 |
| 20260510041148 | 74 | 180 | 0.0 | 0.0 | 0.00 | 0.00 | 0.00 | 1 | 972.1 |
| 20260510040205 | 75 | 180 | 0.0 | 0.0 | 0.00 | 0.00 | 0.00 | 2 | 972.1 |
| 20260510035145 | 75 | 180 | 0.0 | 0.0 | 0.00 | 0.00 | 0.00 | 2 | 972.0 |
| 20260510034119 | 75 | 180 | 0.0 | 0.0 | 0.00 | 0.00 | 0.00 | 2 | 972.0 |
| 20260510033058 | 75 | 180 | 0.0 | 0.0 | 0.00 | 0.00 | 0.00 | 4 | 971.9 |
| 20260510032029 | 76 | 180 | 0.0 | 0.0 | 0.00 | 0.00 | 0.00 | 11 | 971.8 |
| 20260510031046 | 76 | 180 | 0.0 | 0.0 | 0.00 | 0.00 | 0.00 | 11 | 971.8 |
| 20260510030107 | 75 | 180 | 0.0 | 0.0 | 0.00 | 0.00 | 0.00 | 14 | 971.6 |
| 20260510025108 | 75 | 180 | 0.0 | 0.0 | 0.00 | 0.00 | 0.00 | 23 | 971.5 |
| 20260510024101 | 75 | 180 | 0.0 | 0.0 | 0.00 | 0.00 | 0.00 | 30 | 971.3 |
| 20260510021902 | 76 | 180 | 0.0 | 0.0 | 0.00 | 0.00 | 0.00 | 50 | 971.0 |
| 20260510020918 | 76 | 180 | 0.0 | 0.0 | 0.00 | 0.00 | 0.00 | 55 | 970.9 |
| 20260510015846 | 77 | 180 | 0.0 | 0.0 | 0.00 | 0.00 | 0.00 | 60 | 970.7 |
| 20260510014853 | 78 | 180 | 0.0 | 0.0 | 0.00 | 0.00 | 0.00 | 62 | 970.7 |
| 20260510013821 | 79 | 180 | 0.0 | 0.0 | 0.00 | 0.00 | 0.00 | 62 | 970.6 |
| 20260510011624 | 81 | 180 | 0.0 | 0.0 | 0.00 | 0.00 | 0.00 | 61 | 970.5 |
| 20260510010630 | 82 | 180 | 0.0 | 0.0 | 0.00 | 0.00 | 0.00 | 59 | 970.3 |
| 20260510005618 | 83 | 180 | 0.0 | 0.0 | 0.00 | 0.00 | 0.00 | 57 | 970.3 |
| 20260510002251 | 85 | 180 | 0.0 | 0.0 | 0.00 | 0.00 | 0.00 | 54 | 969.9 |
| 20260510000128 | 87 | 180 | 0.0 | 0.0 | 0.00 | 0.00 | 0.00 | 51 | 969.8 |
| 20260509235119 | 88 | 180 | 0.0 | 0.0 | 0.00 | 0.00 | 0.00 | 49 | 969.7 |
| 20260509233026 | 90 | 180 | 0.0 | 0.0 | 0.00 | 0.00 | 0.00 | 46 | 969.7 |
| 20260509232047 | 91 | 180 | 0.0 | 0.0 | 0.00 | 0.00 | 0.00 | 45 | 969.6 |
| 20260509231052 | 92 | 180 | 0.0 | 0.0 | 0.00 | 0.00 | 0.00 | 44 | 969.6 |
| 20260509230046 | 92 | 180 | 0.0 | 0.0 | 0.00 | 0.00 | 0.00 | 43 | 969.5 |
| 20260509225023 | 92 | 180 | 0.0 | 0.0 | 0.00 | 0.00 | 0.00 | 44 | 969.6 |
| 20260509224024 | 93 | 178 | 0.0 | 2.6 | 0.00 | 0.00 | 0.00 | 43 | 969.5 |
| 20260509221919 | 93 | 175 | 0.0 | 0.9 | 0.00 | 0.00 | 0.00 | 46 | 969.5 |
| 20260509214742 | 91 | 175 | 0.0 | 1.7 | 0.00 | 0.00 | 0.00 | 48 | 969.7 |
| 20260509213746 | 91 | 173 | 0.0 | 1.7 | 0.00 | 0.00 | 0.00 | 50 | 969.8 |
| 20260509212722 | 91 | 173 | 0.0 | 0.0 | 0.00 | 0.00 | 0.00 | 50 | 970.0 |
| 20260509211744 | 90 | 173 | 0.0 | 0.0 | 0.00 | 0.00 | 0.00 | 52 | 970.0 |
| 20260509210736 | 90 | 173 | 0.0 | 2.6 | 0.00 | 0.00 | 0.00 | 49 | 970.1 |
| 20260509204618 | 89 | 196 | 0.0 | 1.7 | 0.00 | 0.00 | 0.00 | 53 | 970.3 |
| 20260509203630 | 89 | 199 | 0.0 | 1.7 | 0.00 | 0.00 | 0.00 | 48 | 970.5 |
| 20260509202612 | 89 | 204 | 0.0 | 1.7 | 0.00 | 0.00 | 0.00 | 48 | 970.6 |
| 20260509201602 | 90 | 182 | 0.0 | 1.7 | 0.00 | 0.00 | 0.00 | 46 | 971.0 |
| 20260509200534 | 91 | 257 | 0.0 | 0.0 | 0.00 | 0.00 | 0.00 | 51 | 971.2 |
| 20260509195525 | 92 | 257 | 0.0 | 0.0 | 0.00 | 0.00 | 0.00 | 46 | 971.1 |
| 20260509194513 | 93 | 256 | 0.0 | 0.0 | 0.00 | 0.00 | 0.00 | 47 | 971.0 |
| 20260509193527 | 92 | 257 | 0.0 | 0.0 | 0.00 | 0.00 | 0.00 | 52 | 971.0 |
| 20260509191353 | 92 | 257 | 0.0 | 0.0 | 0.00 | 0.00 | 0.00 | 53 | 971.1 |
| 20260509190319 | 91 | 257 | 0.0 | 0.0 | 0.00 | 0.00 | 0.00 | 54 | 971.3 |
| 20260509185310 | 90 | 257 | 0.0 | 0.0 | 0.00 | 0.00 | 0.00 | 55 | 971.5 |
| 20260509184316 | 89 | 257 | 0.0 | 0.0 | 0.00 | 0.00 | 0.00 | 56 | 971.6 |
| 20260509183244 | 88 | 257 | 0.0 | 0.0 | 0.00 | 0.00 | 0.00 | 57 | 971.8 |
| 20260509182234 | 88 | 257 | 0.0 | 0.0 | 0.00 | 0.00 | 0.00 | 57 | 971.9 |
| 20260509181235 | 88 | 257 | 0.0 | 0.0 | 0.00 | 0.00 | 0.00 | 56 | 971.9 |
| 20260509180225 | 87 | 257 | 0.0 | 0.0 | 0.00 | 0.00 | 0.00 | 57 | 972.2 |
| 20260509175203 | 86 | 257 | 0.0 | 0.0 | 0.00 | 0.00 | 0.00 | 60 | 972.1 |
| 20260509174221 | 86 | 257 | 0.0 | 0.0 | 0.00 | 0.00 | 0.00 | 59 | 972.2 |
| 20260509173235 | 87 | 257 | 0.0 | 0.0 | 0.00 | 0.00 | 0.00 | 58 | 972.4 |
| 20260509172204 | 88 | 257 | 0.0 | 0.0 | 0.00 | 0.00 | 0.00 | 58 | 972.8 |
| 20260509165943 | 85 | 257 | 0.0 | 0.0 | 0.00 | 0.00 | 0.00 | 54 | 972.7 |
| 20260509164945 | 83 | 257 | 0.0 | 0.0 | 0.00 | 0.00 | 0.00 | 50 | 972.7 |
| 20260509164007 | 82 | 257 | 0.0 | 0.0 | 0.00 | 0.00 | 0.00 | 39 | 972.7 |
| 20260509162941 | 81 | 257 | 0.0 | 2.6 | 0.00 | 0.00 | 0.00 | 6 | 972.7 |
| 20260509161941 | 80 | 229 | 0.0 | 1.7 | 0.00 | 0.00 | 0.00 | 1 | 972.9 |
| 20260509155848 | 77 | 227 | 0.0 | 0.0 | 0.00 | 0.00 | 0.00 | 1 | 973.0 |
| 20260509154911 | 77 | 227 | 0.0 | 0.0 | 0.00 | 0.00 | 0.00 | 1 | 972.9 |
| 20260509153905 | 78 | 227 | 0.0 | 0.0 | 0.00 | 0.00 | 0.00 | 1 | 973.0 |
| 20260509152901 | 78 | 227 | 0.0 | 0.0 | 0.00 | 0.00 | 0.00 | 1 | 972.8 |
| 20260509151859 | 79 | 226 | 0.0 | 0.0 | 0.00 | 0.00 | 0.00 | 1 | 972.5 |
| 20260509150905 | 79 | 227 | 0.0 | 0.9 | 0.00 | 0.00 | 0.00 | 1 | 972.3 |